Harlan, IA

12:41 AM CST on December 12, 2019 (GMT -0600)
Harlan Municipal

Weather History for KHNR - October, 2019

Change the Weather History Date:

Tuesday, October 29, 2019

  Actual Average Record
Temperature  
Mean Temperature 30 °F -  
Max Temperature 39 °F 57 °F 80 °F (2004)
Min Temperature 21 °F 34 °F 17 °F (1952)
Degree Days  
Heating Degree Days 35    
Moisture  
Dew Point 24 °F    
Average Humidity 78    
Maximum Humidity 100    
Minimum Humidity 48    
Precipitation  
Precipitation 0.03 in - - ()
Sea Level Pressure  
Sea Level Pressure 30.25 in    
Wind  
Wind Speed 3 mph ()    
Max Wind Speed 13 mph    
Max Gust Speed 16 mph    
Visibility 9.3 miles    
Events      
Averages and records for this station are not official NWS values.
T = Trace of Precipitation, MM = Missing Value Source: Averaged Metar Reports

Daily Weather History Graph

Daily Weather History Graph

Search for Another Location

Airport or City:

Astronomy

Oct. 29, 2019 Rise Set
Actual Time 7:49 AM CDT 6:20 PM CDT
Civil Twilight 7:20 AM CDT 6:48 PM CDT
Nautical Twilight 6:48 AM CDT 7:21 PM CDT
Astronomical Twilight 6:15 AM CDT 7:53 PM CDT
Moon 9:24 AM CDT (10/29) 7:44 PM CDT (10/29)
Length of Visible Light 11h 27m
Length of Day
10h 30m
Waxing Crescent, 3% of the Moon is Illuminated
Oct 29
Waxing Crescent
Nov 4
First Quarter
Nov 12
Full
Nov 19
Last Quarter
Nov 26
New

Hourly Weather History & Observations

Time (CDT) Temp. Windchill Dew Point Humidity Pressure Visibility Wind Dir Wind Speed Gust Speed Precip Events Conditions
12:15 AM 24.8 °F 19.1 °F 24.8 °F 100% 30.18 in 10.0 mi NW 4.6 mph - N/A   Clear
12:35 AM 23.0 °F 17.0 °F 23.0 °F 100% 30.16 in 10.0 mi NW 4.6 mph - N/A   Clear
12:55 AM - - - N/A% 30.15 in 8.0 mi NE 3.5 mph - N/A   Clear
1:15 AM 23.0 °F - 23.0 °F 100% 30.15 in 10.0 mi Calm Calm - N/A   Clear
1:35 AM 23.0 °F - 23.0 °F 100% 30.17 in 10.0 mi Calm Calm - N/A   Clear
1:55 AM 21.2 °F 12.6 °F 21.2 °F 100% 30.18 in 10.0 mi WNW 6.9 mph - N/A   Mostly Cloudy
2:15 AM - - - N/A% 30.17 in 10.0 mi WNW 6.9 mph - N/A   Overcast
2:35 AM 23.0 °F 15.8 °F 23.0 °F 100% 30.18 in 10.0 mi WNW 5.8 mph - N/A   Overcast
2:55 AM 24.8 °F 17.9 °F 24.8 °F 100% 30.19 in 10.0 mi WNW 5.8 mph - N/A   Overcast
3:15 AM 24.8 °F - 24.8 °F 100% 30.19 in 10.0 mi Calm Calm - N/A   Overcast
3:35 AM 24.8 °F - 24.8 °F 100% 30.19 in 10.0 mi Calm Calm - N/A   Mostly Cloudy
3:55 AM 23.0 °F - 23.0 °F 100% 30.20 in 10.0 mi Calm Calm - N/A   Mostly Cloudy
4:15 AM 23.0 °F 18.4 °F 23.0 °F 100% 30.21 in 10.0 mi SW 3.5 mph - N/A   Overcast
4:35 AM 26.6 °F - 26.6 °F 100% 30.21 in 10.0 mi Calm Calm - N/A   Overcast
4:55 AM 26.6 °F - 26.6 °F 100% 30.20 in 10.0 mi Calm Calm - N/A   Overcast
5:15 AM 26.6 °F - 26.6 °F 100% 30.19 in 10.0 mi Calm Calm - N/A   Overcast
5:35 AM 26.6 °F - 26.6 °F 100% 30.20 in 10.0 mi Calm Calm - N/A   Overcast
5:55 AM 26.6 °F - 26.6 °F 100% 30.20 in 10.0 mi Calm Calm - N/A   Overcast
6:15 AM 26.6 °F - 26.6 °F 100% 30.20 in 9.0 mi Calm Calm - N/A   Mostly Cloudy
6:35 AM 26.6 °F - 26.6 °F 100% 30.21 in 7.0 mi Calm Calm - N/A   Partly Cloudy
6:55 AM 26.6 °F - 26.6 °F 100% 30.21 in 8.0 mi Calm Calm - N/A   Clear
7:15 AM 24.8 °F - 24.8 °F 100% 30.21 in 7.0 mi Calm Calm - N/A   Partly Cloudy
7:35 AM 24.8 °F 20.5 °F 24.8 °F 100% 30.23 in 7.0 mi SSW 3.5 mph - N/A   Clear
7:55 AM 23.0 °F 18.4 °F 23.0 °F 100% 30.25 in 4.0 mi SW 3.5 mph - N/A   Clear
8:15 AM 23.0 °F - 23.0 °F 100% 30.26 in 4.0 mi Calm Calm - N/A   Clear
8:35 AM 24.8 °F - 24.8 °F 100% 30.27 in 3.0 mi Calm Calm - N/A   Clear
8:55 AM 24.8 °F - 24.8 °F 100% 30.26 in 4.0 mi Calm Calm - N/A   Clear
9:15 AM 24.8 °F - 24.8 °F 100% 30.28 in 6.0 mi Calm Calm - N/A   Clear
9:55 AM 28.4 °F 24.6 °F 28.4 °F 100% 30.28 in 6.0 mi SSW 3.5 mph - N/A   Clear
10:15 AM 30.2 °F - 28.4 °F 93% 30.28 in 9.0 mi Calm Calm - N/A   Clear
10:35 AM 32.0 °F - 28.4 °F 87% 30.28 in 10.0 mi Calm Calm - N/A   Clear
10:55 AM 33.8 °F - 28.4 °F 81% 30.28 in 10.0 mi Calm Calm - 0.03 in   Clear
11:15 AM 33.8 °F - 28.4 °F 81% 30.29 in 10.0 mi Calm Calm - N/A   Clear
11:35 AM 33.8 °F - 28.4 °F 81% 30.29 in 10.0 mi Calm Calm - N/A   Clear
11:55 AM 35.6 °F - 28.4 °F 75% 30.29 in 10.0 mi Calm Calm - N/A   Clear
12:15 PM 37.4 °F - 26.6 °F 65% 30.29 in 10.0 mi Calm Calm - N/A   Scattered Clouds
12:35 PM 37.4 °F - 21.2 °F 52% 30.30 in 10.0 mi Calm Calm - N/A   Scattered Clouds
12:55 PM 37.4 °F - 19.4 °F 48% 30.28 in 10.0 mi Calm Calm - N/A   Clear
1:15 PM 37.4 °F 34.9 °F 23.0 °F 56% 30.28 in 10.0 mi Variable 3.5 mph - N/A   Scattered Clouds
1:35 PM 37.4 °F - 24.8 °F 60% 30.27 in 10.0 mi Calm Calm - N/A   Mostly Cloudy
1:55 PM 37.4 °F - 21.2 °F 52% 30.27 in 10.0 mi Calm Calm - N/A   Partly Cloudy
2:15 PM 37.4 °F - 19.4 °F 48% 30.27 in 10.0 mi Calm Calm - N/A   Clear
2:35 PM 37.4 °F - 19.4 °F 48% 30.26 in 10.0 mi Calm Calm - N/A   Clear
2:55 PM 37.4 °F 34.9 °F 19.4 °F 48% 30.26 in 10.0 mi NW 3.5 mph - N/A   Clear
3:15 PM 37.4 °F - 19.4 °F 48% 30.26 in 10.0 mi Calm Calm - N/A   Clear
3:35 PM 37.4 °F - 19.4 °F 48% 30.26 in 10.0 mi Calm Calm - N/A   Clear
3:55 PM 39.2 °F 37.0 °F 21.2 °F 49% 30.26 in 10.0 mi Variable 3.5 mph - N/A   Clear
4:15 PM 39.2 °F 37.0 °F 21.2 °F 49% 30.27 in 10.0 mi North 3.5 mph - N/A   Clear
4:35 PM 39.2 °F 35.9 °F 21.2 °F 49% 30.27 in 10.0 mi West 4.6 mph - N/A   Clear
4:55 PM 37.4 °F 34.9 °F 21.2 °F 52% 30.27 in 10.0 mi NW 3.5 mph - N/A   Clear
5:15 PM 37.4 °F - 21.2 °F 52% 30.27 in 10.0 mi Calm Calm - N/A   Scattered Clouds
5:35 PM 37.4 °F - 23.0 °F 56% 30.27 in 10.0 mi Calm Calm - N/A   Scattered Clouds
5:55 PM 37.4 °F - 24.8 °F 60% 30.28 in 10.0 mi Calm Calm - N/A   Partly Cloudy
6:15 PM 37.4 °F 34.9 °F 24.8 °F 60% 30.28 in 10.0 mi WNW 3.5 mph - N/A   Mostly Cloudy
6:35 PM 35.6 °F 31.7 °F 28.4 °F 75% 30.28 in 10.0 mi NW 4.6 mph - N/A   Overcast
6:55 PM 35.6 °F 30.7 °F 28.4 °F 75% 30.29 in 10.0 mi NW 5.8 mph - N/A   Overcast
7:15 PM 35.6 °F 30.7 °F 26.6 °F 70% 30.29 in 10.0 mi NNW 5.8 mph - N/A   Overcast
7:55 PM 35.6 °F 29.2 °F 24.8 °F 65% 30.29 in 10.0 mi NNW 8.1 mph - N/A   Mostly Cloudy
8:15 PM 35.6 °F 29.9 °F 24.8 °F 65% 30.29 in 10.0 mi NNW 6.9 mph - N/A   Scattered Clouds
8:35 PM 35.6 °F 29.9 °F 24.8 °F 65% 30.30 in 10.0 mi NNW 6.9 mph - N/A   Overcast
8:55 PM 35.6 °F 29.2 °F 24.8 °F 65% 30.30 in 10.0 mi NNW 8.1 mph - N/A   Overcast
9:15 PM 35.6 °F 28.6 °F 24.8 °F 65% 30.31 in 10.0 mi North 9.2 mph - N/A   Overcast
9:55 PM 35.6 °F 28.0 °F 24.8 °F 65% 30.32 in 10.0 mi North 10.4 mph 16.1 mph N/A   Mostly Cloudy
10:15 PM 33.8 °F 27.0 °F 26.6 °F 75% 30.32 in 10.0 mi North 8.1 mph 15.0 mph N/A   Partly Cloudy
10:35 PM 33.8 °F 25.8 °F 24.8 °F 70% 30.33 in 10.0 mi North 10.4 mph 16.1 mph N/A   Mostly Cloudy
10:55 PM 33.8 °F 25.8 °F 24.8 °F 70% 30.34 in 10.0 mi North 10.4 mph - N/A   Overcast
11:15 PM 33.8 °F 26.4 °F 24.8 °F 70% 30.34 in 10.0 mi North 9.2 mph - N/A   Overcast
11:35 PM 33.8 °F 25.3 °F 24.8 °F 70% 30.33 in 10.0 mi North 11.5 mph - N/A   Overcast
11:55 PM 33.8 °F 24.8 °F 24.8 °F 70% 30.33 in 10.0 mi North 12.7 mph - N/A   Mostly Cloudy